Time,TemperatureF,DewpointF,PressureIn,WindDirection,WindDirectionDegrees,WindSpeedMPH,WindSpeedGustMPH,Humidity,HourlyPrecipIn,Conditions,Clouds,dailyrainin,SoftwareType,DateUTC
2013-07-05 00:00:00,71.8,69.7,30.22,SSE,160,0.0,0.0,93,0.00,,,0.27,Wunderground v.1.15,2013-07-05 04:00:00,
2013-07-05 00:10:00,71.7,69.6,30.22,SSE,160,0.0,0.0,93,0.00,,,0.00,Wunderground v.1.15,2013-07-05 04:10:00,
2013-07-05 00:20:00,71.4,69.3,30.21,SSE,160,0.0,0.0,93,0.00,,,0.00,Wunderground v.1.15,2013-07-05 04:20:00,
2013-07-05 00:30:00,71.2,69.1,30.21,SSE,160,0.0,0.0,93,0.00,,,0.00,Wunderground v.1.15,2013-07-05 04:30:00,
2013-07-05 00:40:00,71.2,69.1,30.21,SSW,197,0.0,2.0,93,0.00,,,0.00,Wunderground v.1.15,2013-07-05 04:40:00,
2013-07-05 00:50:00,71.3,69.2,30.21,SW,219,0.0,1.0,93,0.00,,,0.00,Wunderground v.1.15,2013-07-05 04:50:00,
2013-07-05 01:00:00,71.3,69.2,30.21,South,189,0.0,1.0,93,0.00,,,0.00,Wunderground v.1.15,2013-07-05 05:00:00,
2013-07-05 01:10:00,71.2,69.1,30.21,SSW,193,0.0,0.0,93,0.00,,,0.00,Wunderground v.1.15,2013-07-05 05:10:00,
2013-07-05 01:20:00,71.2,69.1,30.21,SSW,198,0.0,0.0,93,0.00,,,0.00,Wunderground v.1.15,2013-07-05 05:20:00,
2013-07-05 01:30:00,71.1,69.0,30.21,SSW,198,0.0,0.0,93,0.00,,,0.00,Wunderground v.1.15,2013-07-05 05:30:00,
2013-07-05 01:40:00,71.0,68.9,30.20,SSW,207,0.0,0.0,93,0.00,,,0.00,Wunderground v.1.15,2013-07-05 05:40:00,
2013-07-05 01:50:00,71.0,68.9,30.20,SSW,206,0.0,1.0,93,0.00,,,0.00,Wunderground v.1.15,2013-07-05 05:50:00,
2013-07-05 02:00:00,70.8,68.7,30.20,SSW,200,0.0,0.0,93,0.00,,,0.00,Wunderground v.1.15,2013-07-05 06:00:00,
2013-07-05 02:10:00,70.7,68.6,30.20,SSW,195,0.0,0.0,93,0.00,,,0.00,Wunderground v.1.15,2013-07-05 06:10:00,
2013-07-05 02:20:00,70.6,68.5,30.20,SSW,196,0.0,0.0,93,0.00,,,0.00,Wunderground v.1.15,2013-07-05 06:20:00,
2013-07-05 02:30:00,70.4,68.3,30.20,SSW,196,0.0,0.0,93,0.00,,,0.00,Wunderground v.1.15,2013-07-05 06:30:00,
2013-07-05 02:40:00,70.4,68.3,30.20,SSW,194,0.0,0.0,93,0.00,,,0.00,Wunderground v.1.15,2013-07-05 06:40:00,
2013-07-05 02:50:00,70.5,68.4,30.20,South,191,0.0,0.0,93,0.00,,,0.00,Wunderground v.1.15,2013-07-05 06:50:00,
2013-07-05 03:00:00,70.6,68.5,30.20,South,188,0.0,0.0,93,0.00,,,0.00,Wunderground v.1.15,2013-07-05 07:00:00,
2013-07-05 03:10:00,70.6,68.5,30.19,South,188,0.0,0.0,93,0.00,,,0.00,Wunderground v.1.15,2013-07-05 07:10:00,
2013-07-05 03:20:00,70.5,68.4,30.19,South,188,0.0,0.0,93,0.00,,,0.00,Wunderground v.1.15,2013-07-05 07:20:00,
2013-07-05 03:30:00,70.3,68.2,30.19,South,188,0.0,0.0,93,0.00,,,0.00,Wunderground v.1.15,2013-07-05 07:30:00,
2013-07-05 03:40:00,70.3,67.9,30.19,South,188,0.0,0.0,92,0.00,,,0.00,Wunderground v.1.15,2013-07-05 07:40:00,
2013-07-05 03:50:00,70.4,68.0,30.19,South,188,0.0,2.0,92,0.00,,,0.00,Wunderground v.1.15,2013-07-05 07:50:00,
2013-07-05 04:00:00,70.6,68.2,30.19,South,188,0.0,0.0,92,0.00,,,0.00,Wunderground v.1.15,2013-07-05 08:00:00,
2013-07-05 04:10:00,70.7,68.3,30.19,South,191,0.0,0.0,92,0.00,,,0.00,Wunderground v.1.15,2013-07-05 08:10:00,
2013-07-05 04:20:00,70.8,68.4,30.19,South,180,0.0,0.0,92,0.00,,,0.00,Wunderground v.1.15,2013-07-05 08:20:00,
2013-07-05 04:30:00,70.9,68.5,30.19,SSW,199,0.0,0.0,92,0.00,,,0.00,Wunderground v.1.15,2013-07-05 08:30:00,
2013-07-05 04:40:00,71.0,68.6,30.19,SSW,199,0.0,0.0,92,0.00,,,0.00,Wunderground v.1.15,2013-07-05 08:40:00,
2013-07-05 04:50:00,71.2,68.8,30.19,South,191,0.0,0.0,92,0.00,,,0.00,Wunderground v.1.15,2013-07-05 08:50:00,
2013-07-05 05:00:00,71.2,68.8,30.19,South,183,0.0,0.0,92,0.00,,,0.00,Wunderground v.1.15,2013-07-05 09:00:00,
2013-07-05 05:10:00,71.4,69.0,30.20,SSW,196,1.0,1.0,92,0.00,,,0.00,Wunderground v.1.15,2013-07-05 09:10:00,
2013-07-05 05:20:00,71.5,69.1,30.20,SW,229,1.0,2.0,92,0.00,,,0.00,Wunderground v.1.15,2013-07-05 09:20:00,
2013-07-05 05:30:00,71.5,69.1,30.20,South,186,1.0,1.0,92,0.00,,,0.00,Wunderground v.1.15,2013-07-05 09:30:00,
2013-07-05 05:40:00,71.6,68.8,30.20,South,191,1.0,1.0,91,0.00,,,0.00,Wunderground v.1.15,2013-07-05 09:40:00,
2013-07-05 06:00:00,71.7,68.9,30.20,WSW,238,1.0,2.0,91,0.00,,,0.00,Wunderground v.1.15,2013-07-05 10:00:00,
2013-07-05 06:10:00,71.8,69.0,30.20,SW,219,1.0,1.0,91,0.00,,,0.00,Wunderground v.1.15,2013-07-05 10:10:00,
2013-07-05 06:20:00,72.0,69.2,30.20,SW,219,1.0,1.0,91,0.00,,,0.00,Wunderground v.1.15,2013-07-05 10:20:00,
2013-07-05 06:40:00,72.1,69.3,30.21,SW,219,1.0,1.0,91,0.00,,,0.00,Wunderground v.1.15,2013-07-05 10:40:00,
2013-07-05 07:00:00,72.3,69.5,30.21,SSW,203,2.0,2.0,91,0.00,,,0.00,Wunderground v.1.15,2013-07-05 11:00:00,
2013-07-05 07:10:00,72.4,69.6,30.21,SSW,212,1.0,1.0,91,0.00,,,0.00,Wunderground v.1.15,2013-07-05 11:10:00,
2013-07-05 07:20:00,72.5,69.7,30.21,WSW,244,1.0,3.0,91,0.00,,,0.00,Wunderground v.1.15,2013-07-05 11:20:00,
2013-07-05 07:30:00,72.6,69.8,30.22,SW,231,2.0,2.0,91,0.00,,,0.00,Wunderground v.1.15,2013-07-05 11:30:00,
2013-07-05 07:40:00,72.6,69.8,30.22,South,180,1.0,1.0,91,0.00,,,0.00,Wunderground v.1.15,2013-07-05 11:40:00,
2013-07-05 08:10:00,73.6,71.1,30.22,South,184,1.0,1.0,92,0.00,,,0.00,Wunderground v.1.15,2013-07-05 12:10:00,
2013-07-05 08:20:00,74.0,71.5,30.22,SW,215,2.0,2.0,92,0.00,,,0.00,Wunderground v.1.15,2013-07-05 12:20:00,
2013-07-05 08:30:00,74.4,72.2,30.23,WSW,242,2.0,2.0,93,0.00,,,0.00,Wunderground v.1.15,2013-07-05 12:30:00,
2013-07-05 08:40:00,74.7,72.2,30.23,SW,236,3.0,3.0,92,0.00,,,0.00,Wunderground v.1.15,2013-07-05 12:40:00,
2013-07-05 08:50:00,75.2,72.7,30.23,West,263,3.0,4.0,92,0.00,,,0.00,Wunderground v.1.15,2013-07-05 12:50:00,
2013-07-05 09:10:00,76.4,73.6,30.23,SSW,196,2.0,3.0,91,0.00,,,0.01,Wunderground v.1.15,2013-07-05 13:10:00,
2013-07-05 09:30:00,75.7,73.2,30.23,WSW,254,3.0,3.0,92,0.00,,,0.01,Wunderground v.1.15,2013-07-05 13:30:00,
2013-07-05 09:40:00,75.7,73.2,30.23,West,272,2.0,2.0,92,0.00,,,0.01,Wunderground v.1.15,2013-07-05 13:40:00,
2013-07-05 09:50:00,75.9,73.4,30.23,WSW,250,1.0,3.0,92,0.00,,,0.01,Wunderground v.1.15,2013-07-05 13:50:00,
2013-07-05 10:00:00,75.8,73.3,30.23,West,261,2.0,2.0,92,0.00,,,0.01,Wunderground v.1.15,2013-07-05 14:00:00,
2013-07-05 10:10:00,75.8,73.3,30.23,West,263,1.0,1.0,92,0.00,,,0.01,Wunderground v.1.15,2013-07-05 14:10:00,
2013-07-05 10:20:00,75.9,73.4,30.22,WSW,242,1.0,1.0,92,0.00,,,0.01,Wunderground v.1.15,2013-07-05 14:20:00,
2013-07-05 10:30:00,76.5,74.0,30.22,SSW,198,1.0,1.0,92,0.00,,,0.01,Wunderground v.1.15,2013-07-05 14:30:00,
2013-07-05 10:40:00,76.9,73.7,30.23,SW,216,2.0,2.0,90,0.00,,,0.01,Wunderground v.1.15,2013-07-05 14:40:00,
2013-07-05 10:50:00,77.5,74.0,30.23,SSW,200,3.0,3.0,89,0.00,,,0.01,Wunderground v.1.15,2013-07-05 14:50:00,
2013-07-05 11:00:00,78.2,75.0,30.23,SSW,209,1.0,1.0,90,0.00,,,0.01,Wunderground v.1.15,2013-07-05 15:00:00,
2013-07-05 11:20:00,80.4,75.1,30.23,SW,217,3.0,3.0,84,0.00,,,0.01,Wunderground v.1.15,2013-07-05 15:20:00,
2013-07-05 11:30:00,81.6,76.6,30.23,SW,229,3.0,3.0,85,0.00,,,0.01,Wunderground v.1.15,2013-07-05 15:30:00,
2013-07-05 11:40:00,80.7,74.3,30.23,SE,130,3.0,4.0,81,0.00,,,0.01,Wunderground v.1.15,2013-07-05 15:40:00,
2013-07-05 11:50:00,80.0,74.7,30.23,SW,229,3.0,3.0,84,0.00,,,0.01,Wunderground v.1.15,2013-07-05 15:50:00,
2013-07-05 12:00:00,80.4,75.1,30.23,WSW,254,1.0,1.0,84,0.00,,,0.01,Wunderground v.1.15,2013-07-05 16:00:00,
2013-07-05 12:10:00,80.7,75.8,30.22,WSW,251,2.0,2.0,85,0.00,,,0.01,Wunderground v.1.15,2013-07-05 16:10:00,
2013-07-05 12:20:00,80.7,76.8,30.22,West,278,1.0,1.0,88,0.11,,,0.03,Wunderground v.1.15,2013-07-05 16:20:00,
2013-07-05 12:30:00,81.5,76.9,30.22,West,267,0.0,2.0,86,0.04,,,0.03,Wunderground v.1.15,2013-07-05 16:30:00,
2013-07-05 12:40:00,81.3,74.5,30.23,SW,219,3.0,3.0,80,0.00,,,0.03,Wunderground v.1.15,2013-07-05 16:40:00,
2013-07-05 12:50:00,80.1,74.5,30.23,WSW,257,2.0,2.0,83,0.00,,,0.03,Wunderground v.1.15,2013-07-05 16:50:00,
2013-07-05 13:00:00,78.2,73.7,30.23,NW,325,3.0,3.0,86,0.20,,,0.05,Wunderground v.1.15,2013-07-05 17:00:00,
2013-07-05 13:10:00,77.7,73.9,30.22,WSW,240,1.0,2.0,88,0.06,,,0.05,Wunderground v.1.15,2013-07-05 17:10:00,
2013-07-05 13:20:00,77.3,73.8,30.22,West,263,1.0,2.0,89,0.21,,,0.08,Wunderground v.1.15,2013-07-05 17:20:00,
2013-07-05 13:30:00,77.5,75.0,30.21,West,267,0.0,0.0,92,0.06,,,0.10,Wunderground v.1.15,2013-07-05 17:30:00,
2013-07-05 13:40:00,78.0,75.2,30.21,WSW,242,0.0,0.0,91,0.00,,,0.10,Wunderground v.1.15,2013-07-05 17:40:00,
2013-07-05 13:50:00,78.7,76.2,30.21,South,177,0.0,0.0,92,0.00,,,0.10,Wunderground v.1.15,2013-07-05 17:50:00,
2013-07-05 14:00:00,79.4,76.9,30.20,South,189,0.0,1.0,92,0.00,,,0.10,Wunderground v.1.15,2013-07-05 18:00:00,
2013-07-05 14:10:00,80.6,77.4,30.20,SW,216,1.0,1.0,90,0.00,,,0.10,Wunderground v.1.15,2013-07-05 18:10:00,
2013-07-05 14:20:00,80.4,76.5,30.20,SW,217,1.0,1.0,88,0.00,,,0.10,Wunderground v.1.15,2013-07-05 18:20:00,
2013-07-05 14:30:00,79.7,76.2,30.20,WSW,239,1.0,1.0,89,0.00,,,0.10,Wunderground v.1.15,2013-07-05 18:30:00,
2013-07-05 14:40:00,79.3,75.8,30.19,SSW,195,1.0,2.0,89,0.00,,,0.10,Wunderground v.1.15,2013-07-05 18:40:00,
2013-07-05 14:50:00,79.0,75.8,30.19,SSW,195,0.0,1.0,90,0.00,,,0.10,Wunderground v.1.15,2013-07-05 18:50:00,
2013-07-05 15:00:00,78.7,75.5,30.19,SSW,194,1.0,1.0,90,0.00,,,0.10,Wunderground v.1.15,2013-07-05 19:00:00,
2013-07-05 15:10:00,78.6,74.4,30.18,SW,223,1.0,1.0,87,0.00,,,0.10,Wunderground v.1.15,2013-07-05 19:10:00,
2013-07-05 15:20:00,78.4,74.2,30.19,SW,223,0.0,1.0,87,0.00,,,0.10,Wunderground v.1.15,2013-07-05 19:20:00,
2013-07-05 15:30:00,78.4,74.2,30.18,WSW,258,1.0,2.0,87,0.00,,,0.10,Wunderground v.1.15,2013-07-05 19:30:00,
2013-07-05 15:40:00,78.2,74.7,30.18,WSW,248,2.0,3.0,89,0.00,,,0.11,Wunderground v.1.15,2013-07-05 19:40:00,
2013-07-05 15:50:00,78.9,76.0,30.18,West,264,2.0,2.0,91,0.00,,,0.11,Wunderground v.1.15,2013-07-05 19:50:00,
2013-07-05 16:00:00,80.0,75.4,30.17,SW,224,4.0,4.0,86,0.00,,,0.11,Wunderground v.1.15,2013-07-05 20:00:00,
2013-07-05 16:10:00,80.9,76.3,30.17,SW,229,3.0,3.0,86,0.00,,,0.11,Wunderground v.1.15,2013-07-05 20:10:00,
2013-07-05 16:20:00,81.0,76.8,30.16,West,268,2.0,2.0,87,0.00,,,0.11,Wunderground v.1.15,2013-07-05 20:20:00,
2013-07-05 16:30:00,81.4,76.1,30.16,West,273,2.0,2.0,84,0.00,,,0.11,Wunderground v.1.15,2013-07-05 20:30:00,
2013-07-05 16:40:00,82.0,76.3,30.16,SW,227,2.0,3.0,83,0.00,,,0.11,Wunderground v.1.15,2013-07-05 20:40:00,
2013-07-05 16:50:00,83.2,77.1,30.16,West,259,1.0,1.0,82,0.00,,,0.11,Wunderground v.1.15,2013-07-05 20:50:00,
2013-07-05 17:00:00,84.2,76.2,30.15,WSW,248,1.0,1.0,77,0.00,,,0.11,Wunderground v.1.15,2013-07-05 21:00:00,
2013-07-05 17:10:00,84.4,75.6,30.15,WSW,255,2.0,2.0,75,0.00,,,0.11,Wunderground v.1.15,2013-07-05 21:10:00,
2013-07-05 17:20:00,85.1,76.7,30.14,SW,236,1.0,3.0,76,0.00,,,0.11,Wunderground v.1.15,2013-07-05 21:20:00,
2013-07-05 17:30:00,85.3,76.1,30.15,South,191,2.0,2.0,74,0.00,,,0.11,Wunderground v.1.15,2013-07-05 21:30:00,
2013-07-05 17:40:00,85.6,75.9,30.14,West,261,1.0,3.0,73,0.00,,,0.11,Wunderground v.1.15,2013-07-05 21:40:00,
2013-07-05 17:50:00,85.6,75.1,30.14,WSW,250,1.0,1.0,71,0.00,,,0.11,Wunderground v.1.15,2013-07-05 21:50:00,
2013-07-05 18:00:00,85.7,75.6,30.14,WSW,254,2.0,2.0,72,0.00,,,0.11,Wunderground v.1.15,2013-07-05 22:00:00,
2013-07-05 18:10:00,85.4,75.3,30.15,WSW,250,1.0,1.0,72,0.00,,,0.11,Wunderground v.1.15,2013-07-05 22:10:00,
2013-07-05 18:20:00,84.0,75.2,30.15,WSW,252,1.0,1.0,75,0.00,,,0.11,Wunderground v.1.15,2013-07-05 22:20:00,
2013-07-05 18:30:00,83.0,76.6,30.14,WSW,252,0.0,0.0,81,0.00,,,0.11,Wunderground v.1.15,2013-07-05 22:30:00,
2013-07-05 18:40:00,82.0,76.3,30.14,WSW,252,0.0,0.0,83,0.00,,,0.11,Wunderground v.1.15,2013-07-05 22:40:00,
2013-07-05 18:50:00,80.5,74.5,30.16,WSW,251,1.0,1.0,82,0.00,,,0.11,Wunderground v.1.15,2013-07-05 22:50:00,
2013-07-05 19:00:00,76.5,72.7,30.17,SW,233,3.0,3.0,88,0.53,,,0.25,Wunderground v.1.15,2013-07-05 23:00:00,
2013-07-05 19:10:00,74.7,71.9,30.17,SW,228,2.0,2.0,91,0.08,,,0.26,Wunderground v.1.15,2013-07-05 23:10:00,
2013-07-05 19:20:00,73.9,71.4,30.17,SW,228,0.0,0.0,92,0.00,,,0.26,Wunderground v.1.15,2013-07-05 23:20:00,
2013-07-05 19:30:00,73.5,71.0,30.17,NNW,331,0.0,0.0,92,0.00,,,0.26,Wunderground v.1.15,2013-07-05 23:30:00,
2013-07-05 19:40:00,73.0,70.5,30.17,WNW,297,1.0,1.0,92,0.00,,,0.26,Wunderground v.1.15,2013-07-05 23:40:00,
2013-07-05 19:50:00,72.8,70.3,30.17,WNW,294,0.0,0.0,92,0.00,,,0.26,Wunderground v.1.15,2013-07-05 23:50:00,
2013-07-05 20:00:00,72.5,70.0,30.18,NW,304,0.0,0.0,92,0.00,,,0.26,Wunderground v.1.15,2013-07-06 00:00:00,
2013-07-05 20:10:00,72.5,70.0,30.18,NW,306,0.0,0.0,92,0.00,,,0.26,Wunderground v.1.15,2013-07-06 00:10:00,
2013-07-05 20:20:00,72.5,70.0,30.17,NW,306,0.0,0.0,92,0.00,,,0.26,Wunderground v.1.15,2013-07-06 00:20:00,
2013-07-05 20:30:00,72.5,70.0,30.18,West,272,0.0,0.0,92,0.00,,,0.26,Wunderground v.1.15,2013-07-06 00:30:00,
2013-07-05 20:40:00,72.4,69.9,30.17,West,272,0.0,0.0,92,0.00,,,0.26,Wunderground v.1.15,2013-07-06 00:40:00,
2013-07-05 20:50:00,72.4,69.9,30.17,West,272,0.0,0.0,92,0.00,,,0.26,Wunderground v.1.15,2013-07-06 00:50:00,
2013-07-05 21:00:00,72.3,69.8,30.17,West,272,0.0,0.0,92,0.00,,,0.26,Wunderground v.1.15,2013-07-06 01:00:00,
2013-07-05 21:10:00,72.2,69.7,30.17,West,272,0.0,0.0,92,0.00,,,0.26,Wunderground v.1.15,2013-07-06 01:10:00,
2013-07-05 21:20:00,72.2,69.7,30.18,West,272,0.0,0.0,92,0.00,,,0.26,Wunderground v.1.15,2013-07-06 01:20:00,
2013-07-05 21:30:00,72.0,69.5,30.18,West,272,0.0,0.0,92,0.00,,,0.26,Wunderground v.1.15,2013-07-06 01:30:00,
2013-07-05 21:40:00,71.9,69.1,30.19,West,272,0.0,0.0,91,0.00,,,0.26,Wunderground v.1.15,2013-07-06 01:40:00,
2013-07-05 21:50:00,71.8,69.0,30.19,West,272,0.0,0.0,91,0.00,,,0.26,Wunderground v.1.15,2013-07-06 01:50:00,
2013-07-05 22:00:00,71.7,68.9,30.20,West,272,0.0,0.0,91,0.00,,,0.26,Wunderground v.1.15,2013-07-06 02:00:00,
2013-07-05 22:10:00,71.7,68.9,30.20,West,272,0.0,0.0,91,0.00,,,0.26,Wunderground v.1.15,2013-07-06 02:10:00,
2013-07-05 22:20:00,71.6,68.8,30.21,West,272,0.0,0.0,91,0.00,,,0.26,Wunderground v.1.15,2013-07-06 02:20:00,
2013-07-05 22:30:00,72.0,68.9,30.22,SW,216,1.0,1.0,90,0.00,,,0.26,Wunderground v.1.15,2013-07-06 02:30:00,
2013-07-05 22:40:00,72.3,69.2,30.21,SSW,194,2.0,2.0,90,0.38,,,0.30,Wunderground v.1.15,2013-07-06 02:40:00,
2013-07-05 22:50:00,72.2,69.4,30.21,SW,215,1.0,1.0,91,0.14,,,0.33,Wunderground v.1.15,2013-07-06 02:50:00,
2013-07-05 23:00:00,71.9,69.4,30.21,SW,219,0.0,0.0,92,0.04,,,0.33,Wunderground v.1.15,2013-07-06 03:00:00,
2013-07-05 23:10:00,71.7,68.9,30.21,SW,226,0.0,0.0,91,0.00,,,0.33,Wunderground v.1.15,2013-07-06 03:10:00,
2013-07-05 23:20:00,71.7,68.9,30.20,West,265,0.0,2.0,91,0.00,,,0.33,Wunderground v.1.15,2013-07-06 03:20:00,
2013-07-05 23:30:00,71.9,69.1,30.20,SSW,206,1.0,1.0,91,0.00,,,0.33,Wunderground v.1.15,2013-07-06 03:30:00,
2013-07-05 23:40:00,71.9,69.1,30.20,SSW,202,0.0,0.0,91,0.00,,,0.33,Wunderground v.1.15,2013-07-06 03:40:00,
2013-07-05 23:50:00,72.1,69.0,30.20,South,182,0.0,0.0,90,0.00,,,0.33,Wunderground v.1.15,2013-07-06 03:50:00,